• en Belgique
  • Liste des pays
  • À 7 jours
  • Température de l'eau
  • Carte satellitaire
  • Carte météo
  • Widgets météo
  • user-avatar
    Se connecter

    Météo par heure à Audenarde

    Ce jour, 28 Mai, Lundi

    Heure Température Précipitation Vent Pression Humidité
    00:00 +20°C° 0,2 mm 1 m/s 761 mmHg 86%
    01:00 +20°C° 0 mm 1 m/s 761 mmHg 87%
    02:00 +20°C° 0 mm 1 m/s 761 mmHg 87%
    03:00 +19°C° 0 mm 1 m/s 761 mmHg 88%
    04:00 +20°C° 0 mm 1 m/s 761 mmHg 85%
    05:00 +21°C° 0 mm 1 m/s 761 mmHg 83%
    06:00 +22°C° 0 mm 1 m/s 761 mmHg 80%
    07:00 +24°C° 0 mm 1 m/s 761 mmHg 75%
    08:00 +25°C° 0 mm 1 m/s 761 mmHg 70%
    09:00 +26°C° 0 mm 2 m/s 761 mmHg 65%
    10:00 +27°C° 0,2 mm 2 m/s 761 mmHg 62%
    11:00 +28°C° 0,2 mm 2 m/s 761 mmHg 59%
    12:00 +29°C° 0,2 mm 2 m/s 761 mmHg 56%
    13:00 +29°C° 0,2 mm 2 m/s 761 mmHg 56%
    14:00 +29°C° 0,2 mm 3 m/s 760 mmHg 57%
    15:00 +29°C° 0,2 mm 3 m/s 760 mmHg 57%
    16:00 +28°C° 1,2 mm 3 m/s 760 mmHg 63%
    17:00 +26°C° 1,2 mm 3 m/s 760 mmHg 69%
    18:00 +25°C° 1,2 mm 3 m/s 760 mmHg 75%
    19:00 +24°C° 0,8 mm 3 m/s 761 mmHg 78%
    20:00 +22°C° 0,8 mm 3 m/s 761 mmHg 81%
    21:00 +20°C° 0,8 mm 3 m/s 761 mmHg 85%
    22:00 +20°C° 0,7 mm 3 m/s 761 mmHg 87%
    23:00 +20°C° 0,7 mm 3 m/s 761 mmHg 88%

    Demain, 29 Mai, Mardi

    Heure Température Précipitation Vent Pression Humidité
    00:00 +20°C° 0,7 mm 3 m/s 760 mmHg 90%
    01:00 +20°C° 0,7 mm 3 m/s 760 mmHg 91%
    02:00 +20°C° 0,7 mm 3 m/s 760 mmHg 93%
    03:00 +19°C° 0,7 mm 3 m/s 760 mmHg 94%
    04:00 +20°C° 0,4 mm 3 m/s 760 mmHg 93%
    05:00 +20°C° 0,4 mm 3 m/s 760 mmHg 93%
    06:00 +20°C° 0,4 mm 3 m/s 760 mmHg 92%
    07:00 +21°C° 0,6 mm 3 m/s 759 mmHg 87%
    08:00 +24°C° 0,6 mm 3 m/s 759 mmHg 83%
    09:00 +25°C° 0,6 mm 3 m/s 759 mmHg 78%
    10:00 +25°C° 1,3 mm 3 m/s 759 mmHg 76%
    11:00 +26°C° 1,3 mm 3 m/s 759 mmHg 73%
    12:00 +26°C° 1,3 mm 2 m/s 759 mmHg 71%
    13:00 +26°C° 0,1 mm 3 m/s 758 mmHg 72%
    14:00 +25°C° 0,1 mm 3 m/s 758 mmHg 74%
    15:00 +25°C° 0,1 mm 4 m/s 758 mmHg 75%
    16:00 +24°C° 0,2 mm 3 m/s 757 mmHg 78%
    17:00 +22°C° 0,2 mm 3 m/s 757 mmHg 81%
    18:00 +22°C° 0,2 mm 3 m/s 757 mmHg 83%
    19:00 +21°C° 0,3 mm 3 m/s 757 mmHg 86%
    20:00 +19°C° 0,3 mm 3 m/s 757 mmHg 89%
    21:00 +18°C° 0,3 mm 3 m/s 757 mmHg 91%
    22:00 +18°C° 0,1 mm 3 m/s 757 mmHg 92%
    23:00 +17°C° 0,1 mm 2 m/s 757 mmHg 93%

    Après-demain, 30 Mai, Mercredi

    Heure Température Précipitation Vent Pression Humidité
    00:00 +17°C° 0,1 mm 2 m/s 757 mmHg 93%
    01:00 +16°C° 0 mm 2 m/s 757 mmHg 94%
    02:00 +16°C° 0 mm 2 m/s 756 mmHg 95%
    03:00 +16°C° 0 mm 2 m/s 756 mmHg 96%
    04:00 +16°C° 0 mm 2 m/s 756 mmHg 94%
    05:00 +18°C° 0 mm 1 m/s 756 mmHg 92%
    06:00 +19°C° 0 mm 1 m/s 756 mmHg 91%
    07:00 +20°C° 0 mm 1 m/s 756 mmHg 88%
    08:00 +20°C° 0 mm 2 m/s 757 mmHg 85%
    09:00 +21°C° 0 mm 2 m/s 757 mmHg 82%
    10:00 +23°C° 0 mm 2 m/s 757 mmHg 79%
    11:00 +23°C° 0 mm 2 m/s 757 mmHg 76%
    12:00 +24°C° 0 mm 2 m/s 757 mmHg 73%
    13:00 +24°C° 0,5 mm 2 m/s 757 mmHg 73%
    14:00 +25°C° 0,5 mm 2 m/s 756 mmHg 73%
    15:00 +25°C° 0,5 mm 2 m/s 756 mmHg 73%
    16:00 +24°C° 0,2 mm 3 m/s 756 mmHg 77%
    17:00 +22°C° 0,2 mm 3 m/s 756 mmHg 81%
    18:00 +21°C° 0,2 mm 3 m/s 756 mmHg 84%
    19:00 +20°C° 0 mm 3 m/s 757 mmHg 87%
    20:00 +18°C° 0 mm 2 m/s 757 mmHg 90%
    21:00 +17°C° 0 mm 2 m/s 757 mmHg 93%
    22:00 +17°C° 0 mm 2 m/s 757 mmHg 93%
    23:00 +17°C° 0 mm 2 m/s 757 mmHg 93%

    31 Mai, Jeudi

    Heure Température Précipitation Vent Pression Humidité
    00:00 +16°C° 0 mm 2 m/s 757 mmHg 93%
    01:00 +16°C° 0 mm 2 m/s 757 mmHg 93%
    02:00 +16°C° 0 mm 2 m/s 757 mmHg 93%
    03:00 +16°C° 0 mm 2 m/s 757 mmHg 93%
    04:00 +17°C° 0 mm 2 m/s 757 mmHg 92%
    05:00 +17°C° 0 mm 2 m/s 757 mmHg 90%
    06:00 +18°C° 0 mm 2 m/s 758 mmHg 89%
    07:00 +20°C° 0,2 mm 2 m/s 758 mmHg 85%
    08:00 +21°C° 0,2 mm 2 m/s 758 mmHg 81%
    09:00 +24°C° 0,2 mm 2 m/s 758 mmHg 77%
    10:00 +24°C° 1,1 mm 2 m/s 758 mmHg 76%
    11:00 +25°C° 1,1 mm 2 m/s 758 mmHg 75%
    12:00 +25°C° 1,1 mm 2 m/s 758 mmHg 74%
    13:00 +25°C° 0,7 mm 3 m/s 758 mmHg 76%
    14:00 +24°C° 0,7 mm 3 m/s 758 mmHg 78%
    15:00 +24°C° 0,7 mm 3 m/s 758 mmHg 81%
    16:00 +22°C° 0,4 mm 3 m/s 758 mmHg 83%
    17:00 +21°C° 0,4 mm 3 m/s 758 mmHg 86%
    18:00 +20°C° 0,4 mm 3 m/s 758 mmHg 89%
    19:00 +20°C° 0,1 mm 3 m/s 759 mmHg 89%
    20:00 +19°C° 0,1 mm 3 m/s 759 mmHg 90%
    21:00 +18°C° 0,1 mm 2 m/s 759 mmHg 91%
    22:00 +18°C° 0,6 mm 2 m/s 759 mmHg 91%
    23:00 +18°C° 0,6 mm 2 m/s 759 mmHg 92%

    1 Juin, Vendredi

    Heure Température Précipitation Vent Pression Humidité
    00:00 +18°C° 0,6 mm 2 m/s 759 mmHg 93%
    01:00 +18°C° 0,2 mm 2 m/s 759 mmHg 93%
    02:00 +18°C° 0,2 mm 2 m/s 759 mmHg 94%
    03:00 +17°C° 0,2 mm 2 m/s 759 mmHg 94%
    04:00 +18°C° 0 mm 2 m/s 759 mmHg 93%
    05:00 +19°C° 0 mm 2 m/s 759 mmHg 92%
    06:00 +19°C° 0 mm 2 m/s 759 mmHg 91%
    07:00 +21°C° 0,2 mm 2 m/s 760 mmHg 87%
    08:00 +23°C° 0,2 mm 2 m/s 760 mmHg 83%
    09:00 +24°C° 0,2 mm 2 m/s 760 mmHg 79%
    10:00 +25°C° 1,2 mm 3 m/s 760 mmHg 76%
    11:00 +26°C° 1,2 mm 3 m/s 760 mmHg 73%
    12:00 +26°C° 1,2 mm 4 m/s 760 mmHg 70%
    13:00 +27°C° 0,7 mm 3 m/s 760 mmHg 69%
    14:00 +27°C° 0,7 mm 3 m/s 760 mmHg 67%
    15:00 +27°C° 0,7 mm 3 m/s 759 mmHg 66%
    16:00 +27°C° 0,4 mm 3 m/s 760 mmHg 69%
    17:00 +26°C° 0,4 mm 2 m/s 760 mmHg 72%
    18:00 +26°C° 0,4 mm 2 m/s 760 mmHg 74%
    19:00 +24°C° 0,1 mm 2 m/s 760 mmHg 77%
    20:00 +23°C° 0,1 mm 2 m/s 761 mmHg 79%
    21:00 +21°C° 0,1 mm 3 m/s 761 mmHg 81%
    22:00 +20°C° 0 mm 3 m/s 761 mmHg 82%
    23:00 +19°C° 0 mm 3 m/s 761 mmHg 83%

    2 Juin, Samedi

    Heure Température Précipitation Vent Pression Humidité
    00:00 +19°C° 0 mm 3 m/s 761 mmHg 85%
    01:00 +18°C° 0 mm 3 m/s 761 mmHg 85%
    02:00 +18°C° 0 mm 3 m/s 761 mmHg 86%
    03:00 +17°C° 0 mm 3 m/s 761 mmHg 87%
    04:00 +18°C° 0 mm 3 m/s 762 mmHg 86%
    05:00 +18°C° 0 mm 3 m/s 762 mmHg 84%
    06:00 +19°C° 0 mm 3 m/s 762 mmHg 82%
    07:00 +21°C° 0 mm 3 m/s 762 mmHg 77%
    08:00 +22°C° 0 mm 3 m/s 762 mmHg 72%
    09:00 +25°C° 0 mm 3 m/s 763 mmHg 67%
    10:00 +26°C° 0 mm 3 m/s 763 mmHg 64%
    11:00 +27°C° 0 mm 3 m/s 763 mmHg 60%
    12:00 +28°C° 0 mm 3 m/s 763 mmHg 56%
    13:00 +28°C° 0 mm 3 m/s 762 mmHg 56%
    14:00 +28°C° 0 mm 3 m/s 762 mmHg 55%
    15:00 +28°C° 0 mm 3 m/s 762 mmHg 54%
    16:00 +27°C° 0 mm 3 m/s 762 mmHg 58%
    17:00 +27°C° 0 mm 3 m/s 762 mmHg 62%
    18:00 +26°C° 0 mm 3 m/s 762 mmHg 66%
    19:00 +24°C° 0 mm 3 m/s 763 mmHg 66%
    20:00 +22°C° 0 mm 3 m/s 763 mmHg 67%
    21:00 +20°C° 0 mm 3 m/s 763 mmHg 67%
    22:00 +19°C° 0 mm 3 m/s 763 mmHg 69%
    23:00 +18°C° 0 mm 3 m/s 763 mmHg 70%
    Voir plus